Wind_Speed
15 13 12 13 12 12 10 8 8 7 4 2 3 3 3 3 2 4 6 6 6 7 7 9 11 12 13 13 12 14 16 18 18 17 17 18 16 14 13 12 13 13 13 13 13 12 12 13 13 14 14 14 14 12 11 11 10 9 8 8 8 8 8 8 8 9 9 10 10 11 11 11 10 10 10 12 13 14 14 14 13 13 12 11 11 11
14 15 14 13 10 9 10 10 9 8 7 6 5 4 4 4 4 6 7 5 5 7 7 8 9 12 15 15 13 14 17 18 19 18 18 18 16 14 12 12 12 13 15 15 15 15 15 14 15 15 14 14 14 13 11 11 11 10 9 8 8 8 8 8 9 9 10 10 10 10 11 11 10 9 10 12 13 14 13 13 13 13 12 12 12 11
11 14 15 14 12 10 9 10 10 9 8 8 9 8 7 7 5 6 7 7 6 7 8 9 10 11 14 17 17 16 18 19 20 20 19 18 16 14 12 12 12 13 16 16 16 17 16 16 16 16 14 14 15 14 13 12 11 11 9 9 9 9 9 9 10 11 11 11 11 11 11 11 11 10 11 13 14 14 14 13 13 13 13 13 13 12
8 9 11 14 14 13 11 11 11 12 11 11 12 11 10 10 8 6 8 10 10 10 10 10 12 14 14 17 19 18 19 19 22 23 21 19 17 15 11 9 10 12 15 16 17 18 18 17 17 16 15 14 15 14 12 12 11 10 10 9 9 10 10 10 10 11 12 12 12 12 13 12 12 11 12 14 14 14 14 13 12 13 13 13 13 12
4 3 5 9 13 14 15 15 15 15 15 15 16 15 14 13 11 11 12 14 16 17 14 11 14 16 14 15 18 20 20 19 21 24 24 22 20 17 14 12 10 11 13 15 17 18 19 18 17 16 15 14 14 13 12 11 11 10 10 10 10 10 11 11 10 10 10 10 10 10 11 11 11 11 12 14 14 13 13 13 13 13 13 13 12 12
2 1 1 4 8 11 14 17 17 17 17 18 19 18 16 15 14 15 16 16 16 15 13 9 8 11 11 11 14 18 21 20 21 24 25 24 22 21 19 16 13 12 14 16 17 18 18 17 17 17 16 15 14 14 12 10 10 10 10 10 11 11 11 12 11 10 9 8 8 8 8 9 9 10 11 13 13 13 13 13 13 14 13 12 11 11
4 1 0 2 4 7 10 12 14 17 19 19 21 19 15 13 13 15 15 13 9 8 11 8 6 11 17 15 13 15 19 19 20 23 25 25 24 24 22 19 16 14 15 17 18 18 17 17 17 18 17 15 14 13 12 11 10 10 10 10 11 11 11 12 11 10 9 8 7 7 7 8 8 9 11 13 14 14 14 14 14 14 13 12 11 11
3 2 1 2 3 6 8 9 10 13 18 20 21 20 14 10 10 11 11 11 9 9 11 10 8 11 18 15 9 11 16 17 19 22 25 26 25 24 23 21 19 16 16 18 19 19 17 16 16 16 16 15 14 13 12 11 10 9 9 9 10 11 12 11 11 11 10 9 8 8 8 9 10 10 11 13 14 15 15 14 13 13 13 12 12 11
1 0 1 1 4 6 6 7 8 10 17 20 19 18 14 11 8 6 8 9 8 8 8 8 6 7 13 15 12 12 15 16 16 16 20 25 25 24 24 23 21 19 18 19 19 18 16 14 14 14 15 15 15 14 13 11 9 9 9 9 9 11 11 11 11 11 11 10 10 10 10 11 12 13 13 14 15 15 15 14 13 13 13 12 12 12
1 1 2 2 3 4 4 5 6 10 16 18 16 16 14 11 7 5 8 8 5 6 6 6 5 5 11 17 15 12 14 15 14 15 18 21 23 24 24 24 23 21 21 21 20 17 14 12 12 13 15 16 16 15 13 12 11 10 10 9 9 10 11 11 11 11 11 11 11 11 12 12 14 14 14 14 15 16 15 14 14 14 13 13 12 12
2 0 1 2 1 2 3 4 5 9 13 13 13 14 10 7 5 6 7 5 3 5 3 3 6 6 6 10 8 5 8 10 12 15 17 18 21 24 24 25 25 24 24 23 21 18 15 12 11 13 15 16 17 16 15 14 13 11 10 10 10 10 11 11 12 12 12 12 13 13 13 14 15 15 15 15 15 16 15 15 14 14 13 13 12 12
3 2 2 1 0 1 2 3 4 7 11 9 10 12 9 5 3 2 3 1 3 3 2 3 2 8 8 7 5 5 8 11 14 16 16 14 15 19 22 25 26 26 25 25 23 20 17 15 14 15 16 16 17 18 17 16 14 13 11 10 10 10 10 11 12 13 13 12 13 14 15 15 15 15 15 16 16 16 15 15 14 14 13 12 12 11
3 3 3 2 1 0 1 3 3 5 11 12 11 12 9 5 3 2 1 3 4 3 4 4 2 7 13 16 17 18 19 19 17 16 16 14 12 11 15 21 26 27 27 26 25 22 19 18 16 16 17 17 17 18 17 16 15 14 12 10 10 10 10 11 12 13 13 13 13 14 15 15 15 14 15 16 16 17 16 16 15 14 13 12 11 11
4 2 2 2 3 2 1 2 3 6 10 14 15 13 9 4 2 2 1 3 4 4 8 7 5 7 11 14 17 18 18 17 14 12 13 14 13 9 8 14 21 26 28 27 26 24 21 19 17 17 18 17 17 17 17 16 15 14 13 11 10 10 10 10 11 13 14 14 14 14 14 14 14 14 15 16 17 17 17 17 16 15 14 13 12 11
2 1 2 3 5 3 2 1 4 5 5 10 14 14 10 7 6 3 3 3 2 5 8 3 4 4 4 6 9 11 12 15 17 15 13 12 12 11 9 11 16 23 27 28 27 25 23 20 18 17 18 18 17 16 16 15 15 15 14 12 11 10 10 10 11 12 13 13 14 15 15 14 14 14 15 16 17 18 19 18 18 17 16 15 14 13
3 4 4 5 5 3 3 2 2 4 4 5 9 12 11 10 8 4 6 6 2 3 5 5 6 5 6 8 11 12 13 16 18 16 12 10 10 12 11 10 13 19 24 27 28 27 24 22 20 19 18 18 17 16 16 15 14 14 13 12 12 11 11 11 11 11 12 13 13 14 15 15 15 14 15 16 17 18 19 19 19 19 18 17 16 16
2 4 4 4 3 2 3 2 2 4 4 4 6 10 10 10 9 5 5 4 1 2 4 6 7 7 8 10 10 12 12 13 14 12 8 8 10 12 11 8 9 14 21 26 28 28 26 23 22 20 19 18 18 17 16 15 13 12 12 12 12 12 12 12 12 12 13 13 13 13 14 16 16 15 15 16 17 18 19 20 20 20 19 19 18 18
1 1 2 3 2 2 3 3 1 4 5 5 6 9 9 8 9 6 3 3 2 1 5 7 8 6 6 8 9 13 12 8 8 7 4 5 9 13 12 9 7 10 17 22 25 28 28 26 24 22 20 19 18 17 16 14 12 11 11 11 12 12 12 12 12 13 13 13 13 13 14 14 15 16 16 17 17 18 19 20 21 21 20 20 20 19
3 1 1 1 3 1 1 1 2 2 4 6 7 8 7 5 6 7 4 2 3 2 5 7 8 5 4 6 10 15 13 9 9 8 3 3 8 13 14 11 8 9 14 19 23 28 30 29 26 24 22 20 18 17 16 15 14 12 11 11 12 12 12 12 13 14 14 15 14 14 14 14 15 16 17 18 18 18 19 19 20 21 21 21 21 20
4 2 2 2 4 3 2 3 2 4 4 5 7 8 6 4 6 8 6 5 5 2 3 7 7 3 2 4 7 11 14 13 11 9 5 2 3 7 10 10 9 9 12 16 23 28 30 29 28 27 25 22 20 18 17 17 16 14 13 12 12 12 13 13 14 15 16 16 16 16 16 16 15 16 16 18 19 19 19 19 19 20 21 21 20 20
5 3 2 4 5 3 0 3 6 5 6 6 5 6 4 3 7 10 8 7 8 5 2 7 7 4 5 7 7 7 9 12 11 8 5 2 4 3 1 5 8 9 10 13 18 25 28 29 28 29 29 27 25 23 20 19 18 17 15 14 13 13 13 13 14 15 16 17 17 17 17 17 17 17 16 18 19 20 19 19 19 19 20 20 20 20
5 4 3 4 2 3 5 6 6 6 7 5 4 6 7 6 6 7 7 9 11 8 7 8 8 7 11 13 11 10 9 10 10 8 7 4 3 1 3 5 7 8 10 12 14 19 24 27 28 30 31 30 29 27 24 21 20 19 17 16 15 14 14 14 14 14 15 17 18 18 18 18 19 19 18 18 19 20 20 19 19 20 20 20 20 20
5 5 3 1 3 7 9 7 5 4 4 4 3 4 5 6 4 1 3 10 13 11 10 10 7 9 17 18 14 12 11 10 10 9 9 7 1 3 2 3 4 4 5 9 10 13 18 24 29 31 31 30 30 29 26 24 22 21 20 19 18 17 16 16 16 16 16 17 18 18 19 19 20 20 20 20 20 20 20 20 20 20 20 20 20 20
6 4 1 2 5 8 8 8 6 4 3 2 1 1 2 4 4 3 2 9 11 9 10 8 5 10 18 19 13 11 9 7 9 9 7 4 2 1 2 1 1 1 1 2 4 7 10 18 27 32 33 33 32 29 26 25 24 23 22 22 20 19 18 18 19 18 18 19 19 19 20 21 21 21 22 22 21 21 21 21 21 21 21 21 21 21
5 2 0 2 4 6 6 6 6 4 4 4 4 3 1 2 2 3 2 6 7 7 11 8 3 6 13 14 10 7 6 4 7 8 5 1 2 2 2 1 3 3 3 3 2 1 0 7 20 31 34 34 32 29 28 28 27 26 24 23 22 21 21 21 21 21 21 21 21 21 22 22 22 22 22 22 22 22 21 22 23 23 23 23 23 23
4 2 2 2 3 3 4 4 6 8 7 5 5 4 3 4 4 4 2 4 5 6 8 6 2 4 6 8 6 4 3 1 3 4 2 0 1 2 1 2 3 5 5 5 4 6 7 4 11 24 32 34 33 30 30 29 29 28 26 25 24 24 24 25 25 26 26 25 23 23 24 24 24 23 23 23 23 23 23 23 23 24 24 24 24 24
3 3 3 4 3 3 2 2 3 8 10 8 6 5 5 6 5 5 3 2 6 6 5 4 5 5 3 2 1 1 2 2 1 0 2 2 2 3 3 3 3 5 5 5 5 6 6 5 5 15 25 32 35 33 30 29 29 29 29 28 27 26 27 28 28 29 30 26 25 25 25 24 24 24 24 24 24 24 25 24 25 25 25 25 25 25
2 4 4 4 3 2 2 2 2 3 8 10 10 10 10 9 7 6 4 1 5 5 3 4 6 4 4 6 7 6 5 5 5 5 5 5 4 4 3 4 4 5 6 6 6 6 6 5 1 8 15 23 28 29 29 29 28 29 30 30 30 29 29 29 29 31 30 27 26 26 26 25 25 25 26 26 26 26 26 26 26 26 26 26 26 26
2 3 3 4 4 3 3 3 3 3 4 7 10 12 13 12 9 6 4 1 3 5 6 7 8 7 7 10 11 8 5 4 7 7 6 6 6 5 4 4 5 5 6 8 8 7 8 8 5 4 8 15 20 23 25 25 24 25 28 29 31 31 31 31 31 32 32 31 29 27 28 29 27 26 26 27 28 28 28 28 28 28 28 28 27 27
2 2 3 3 4 4 4 5 5 4 5 6 8 8 8 7 7 5 3 3 2 8 11 10 8 10 10 10 11 9 5 5 8 8 6 6 6 6 6 5 5 6 6 8 8 9 9 9 7 6 5 7 11 15 19 22 23 24 26 29 32 34 35 34 34 34 34 34 32 29 30 31 28 26 27 28 29 30 30 30 30 30 30 30 29 29
1 2 3 2 3 3 3 5 6 7 8 8 7 6 4 2 1 0 2 4 4 3 10 7 3 7 11 10 11 11 8 8 8 7 7 8 7 7 8 7 7 7 6 7 9 10 10 10 9 8 7 6 6 7 10 14 19 21 23 25 29 34 37 37 36 35 34 35 35 34 35 35 31 29 29 29 30 31 32 32 32 32 32 31 31 31
2 2 0 2 3 2 2 4 6 7 10 10 9 8 7 5 3 1 3 3 7 5 3 3 2 2 6 7 9 10 9 9 8 6 7 8 8 7 8 8 8 8 8 9 10 10 11 11 11 11 11 11 10 10 10 11 13 15 16 18 21 28 33 37 38 36 34 33 34 37 39 38 34 30 31 33 33 32 33 35 34 32 32 31 32 32
2 1 1 3 3 2 2 3 4 4 6 8 9 11 10 8 7 4 2 1 5 7 2 3 3 2 2 3 5 7 7 7 8 7 7 8 8 8 8 8 8 8 8 9 10 10 11 12 12 12 12 12 12 13 14 14 15 16 17 16 16 18 22 27 31 34 34 34 35 36 37 37 35 33 33 35 35 33 33 36 36 34 32 31 31 32
3 2 3 4 3 2 2 2 2 3 4 5 7 10 11 10 9 8 6 4 4 5 3 2 4 3 1 3 3 3 4 5 7 7 6 7 8 8 8 8 8 8 8 7 8 9 10 11 11 12 12 13 13 14 15 16 18 18 18 18 17 17 17 20 24 29 33 35 36 37 37 36 37 38 37 35 34 33 33 34 35 35 33 31 31 31
4 4 5 4 3 3 2 1 2 3 5 7 7 8 11 11 10 9 8 7 4 1 0 0 1 1 3 3 2 2 1 2 5 7 5 5 6 7 7 8 8 8 8 7 7 7 7 8 9 10 11 12 12 13 13 14 15 15 16 17 16 17 19 21 24 28 32 35 38 40 40 39 39 40 38 36 36 36 33 31 33 35 34 32 32 32
8 6 6 5 3 2 4 5 4 4 7 8 8 9 11 12 10 8 6 6 6 6 6 6 4 3 3 3 2 2 2 3 4 5 5 5 7 7 8 10 9 8 8 8 7 7 7 8 8 9 10 10 10 10 10 11 10 11 14 14 13 13 15 19 22 25 26 30 36 39 39 39 41 42 40 38 38 37 34 32 33 35 35 35 34 33
10 8 8 7 5 3 5 8 9 9 9 9 10 11 11 11 10 8 5 5 6 8 9 13 13 10 6 3 3 4 5 5 6 6 6 6 8 9 9 10 9 8 7 7 7 7 7 7 8 8 8 8 8 8 8 7 7 9 12 14 13 13 14 15 17 17 15 18 26 35 38 36 38 41 41 40 39 37 35 35 35 35 37 37 35 34
12 10 9 8 6 5 6 6 7 7 6 7 9 11 11 11 10 7 4 3 5 8 10 11 14 13 9 6 4 4 4 4 6 8 7 7 8 9 9 8 7 7 7 6 5 6 6 5 6 7 8 8 8 8 7 6 7 9 11 13 13 11 11 11 10 10 9 9 11 18 24 26 28 32 35 37 38 37 36 36 34 35 38 37 33 31
11 11 9 8 7 7 7 6 5 6 5 6 7 9 10 10 8 6 4 4 4 7 8 7 7 10 10 7 6 6 4 3 5 7 8 8 7 7 6 6 5 6 6 5 4 4 4 4 4 4 5 6 7 7 7 8 9 10 9 10 9 7 6 7 6 6 6 7 8 7 8 13 17 21 24 27 31 33 34 34 33 33 34 32 28 27
11 11 10 9 8 7 8 8 7 7 6 6 6 6 8 9 8 5 3 2 0 3 6 5 5 6 8 7 7 7 6 5 5 6 7 7 6 5 4 4 4 4 4 4 5 5 4 4 4 4 5 5 5 6 7 8 9 9 8 8 8 7 6 5 5 5 5 5 5 6 7 9 12 17 20 23 26 28 29 30 30 31 33 31 29 29
12 11 10 9 8 8 9 9 8 7 7 6 6 6 8 9 8 5 4 2 1 2 4 5 5 5 6 7 7 7 7 7 7 8 7 6 5 5 4 3 3 3 3 3 3 4 4 4 4 4 5 6 6 6 6 7 8 9 8 8 8 8 8 7 6 6 7 6 4 4 5 6 8 13 16 18 22 25 29 28 25 25 28 28 27 28
14 12 10 10 9 9 10 9 8 8 8 7 6 7 10 10 8 6 5 5 5 5 4 5 6 6 5 6 8 8 7 7 8 8 7 7 5 4 3 2 3 3 4 4 4 4 4 4 4 4 4 5 6 6 6 7 8 8 8 8 8 8 9 9 6 5 7 8 6 4 3 3 4 7 9 10 11 15 21 26 25 24 26 26 25 25
14 11 10 10 9 8 9 8 5 6 6 5 6 9 11 11 10 9 7 6 7 6 4 4 6 7 7 8 9 8 7 6 6 6 5 5 4 2 1 1 1 2 3 4 4 4 4 4 4 4 4 3 4 5 6 7 8 8 8 9 9 10 10 9 8 8 8 9 8 7 6 4 3 3 3 3 3 3 7 14 18 20 23 23 22 23
14 11 9 10 10 7 8 8 6 6 6 4 5 8 9 10 9 8 8 8 7 5 4 4 6 7 8 8 8 7 6 5 4 3 2 3 3 2 2 1 1 1 2 2 3 3 4 4 4 4 5 5 4 4 5 7 8 8 8 8 9 10 11 11 11 11 11 11 11 11 11 9 7 6 4 2 1 1 2 6 8 10 13 13 12 13
11 12 11 11 10 8 8 9 8 8 6 4 5 7 8 9 8 8 8 8 7 5 5 5 6 7 7 6 6 5 4 3 2 2 2 3 3 3 3 2 2 1 1 1 2 3 3 3 3 3 4 4 4 4 4 5 7 8 9 9 9 10 11 11 12 12 12 12 13 13 13 13 12 12 11 9 8 7 7 8 9 9 10 12 13 15
9 10 10 9 9 9 9 10 9 8 6 6 6 7 8 9 9 9 9 8 7 6 6 6 7 7 6 5 4 3 3 3 2 2 3 3 4 4 3 3 2 2 1 1 1 2 2 2 2 2 3 3 4 4 4 4 5 6 7 8 8 9 9 10 10 11 11 12 12 13 14 14 15 15 15 15 15 14 13 14 14 14 13 14 18 21
11 10 9 8 7 7 7 7 8 8 7 7 7 8 9 9 9 8 8 7 7 7 7 7 7 6 5 4 3 3 2 2 2 3 3 3 4 4 3 3 2 2 2 2 3 3 3 3 3 2 2 3 3 4 5 5 5 5 6 7 7 8 8 8 9 9 10 10 11 11 12 13 13 14 15 16 16 16 16 17 18 19 19 18 20 22
12 12 11 10 9 7 7 7 7 7 7 7 8 9 9 9 8 7 7 7 7 7 7 6 5 5 4 3 3 2 2 2 2 3 3 3 3 3 2 1 1 2 2 3 3 3 3 3 3 4 3 3 4 4 5 5 5 5 5 6 6 7 7 7 8 8 8 8 8 9 9 10 10 11 12 13 14 15 16 17 18 19 20 21 21 22
12 12 11 11 10 9 8 8 7 7 7 8 9 9 9 9 8 7 7 7 7 7 7 6 5 5 4 3 3 2 1 1 1 2 3 3 2 1 1 0 1 1 2 2 3 3 3 3 3 4 4 4 4 4 4 5 5 6 6 6 6 6 7 7 8 8 8 8 7 7 7 7 8 9 9 10 11 12 13 14 15 17 19 20 20 21
13 13 12 11 10 9 7 7 8 8 8 9 10 10 9 9 9 7 6 6 6 6 6 5 5 4 4 3 3 2 1 1 1 1 2 2 1 1 0 1 1 2 2 2 2 3 3 3 3 4 4 5 5 5 5 5 5 6 6 6 6 7 7 8 9 9 10 10 10 9 8 7 7 7 8 9 9 9 10 11 12 13 15 16 18 18
13 12 11 9 8 7 7 7 8 7 7 8 10 10 10 9 9 7 6 5 5 5 5 4 4 3 3 3 3 2 2 1 1 1 1 1 0 1 1 2 2 2 2 2 2 2 3 3 4 4 5 5 6 6 6 6 6 7 7 7 8 8 8 9 9 10 10 11 11 12 11 10 9 9 9 9 9 10 10 10 10 11 12 13 14 15
Wind_Direction
205 201 203 209 215 220 218 216 220 231 246 286 300 287 292 305 328 338 330 324 320 305 286 274 270 261 252 250 242 234 231 223 217 214 208 206 207 202 193 194 196 191 193 201 205 205 202 194 188 185 179 167 158 153 150 148 154 162 162 158 153 151 148 146 150 152 153 156 158 157 156 155 151 146 146 150 152 150 147 145 144 144 145 144 143 144
212 211 210 210 215 220 221 226 234 242 246 255 275 290 293 288 305 320 323 331 313 289 291 294 281 264 252 252 249 237 234 230 224 222 215 208 205 201 193 194 199 192 191 200 205 206 204 198 192 186 179 168 158 156 156 154 155 160 165 164 156 152 151 148 150 151 153 157 160 163 164 164 161 156 155 157 158 157 156 154 152 152 151 148 147 147
223 226 222 218 218 221 226 235 245 256 256 255 262 271 277 280 299 314 325 350 337 291 292 294 283 276 261 254 252 243 238 234 228 226 221 215 208 200 193 193 201 201 198 201 206 208 207 202 195 186 177 168 163 162 162 158 155 159 164 163 157 155 156 155 154 154 156 161 166 171 174 175 174 172 167 165 165 164 162 162 160 158 157 154 153 153
237 240 232 225 225 228 232 237 244 255 259 257 259 265 266 267 278 291 307 331 330 310 304 294 285 283 268 254 249 242 239 236 230 226 220 217 213 202 194 196 204 210 208 206 206 207 208 206 198 187 178 171 168 168 165 158 156 160 161 160 161 162 162 164 166 165 164 167 171 176 179 183 183 180 174 169 169 168 166 166 164 162 162 160 159 159
239 244 228 220 222 227 233 236 238 245 252 254 254 259 258 264 278 280 287 307 314 309 306 300 291 286 276 261 251 239 237 236 232 229 225 220 215 204 200 203 206 211 213 212 210 208 209 209 202 190 182 176 171 169 166 161 160 161 160 161 166 168 169 172 177 179 176 172 172 176 180 184 183 179 175 171 170 170 169 168 168 166 165 164 164 163
136 145 183 205 217 224 232 237 237 239 247 252 251 255 260 269 280 280 285 302 309 309 313 311 291 290 292 276 260 248 242 238 233 233 232 228 221 212 207 202 201 207 208 208 209 208 210 208 202 195 188 182 176 172 168 167 166 164 163 166 169 172 175 180 183 185 183 178 171 173 178 179 177 172 172 173 170 169 172 173 171 169 167 166 167 165
109 87 184 216 223 227 237 238 235 235 240 247 249 253 265 271 274 279 289 300 296 300 316 310 267 280 295 290 275 260 251 244 237 233 234 234 229 222 214 205 201 203 203 202 200 202 204 204 202 199 193 186 182 179 174 173 172 168 169 172 172 175 180 185 186 185 185 180 170 166 169 172 169 169 173 175 174 174 177 178 175 171 168 167 168 167
120 73 160 234 232 228 244 248 243 238 237 244 248 252 263 271 270 279 289 290 282 287 302 294 261 271 287 292 293 272 257 252 246 236 233 234 235 230 221 211 205 202 200 197 192 193 194 194 195 197 196 189 185 188 185 177 175 173 175 181 180 177 182 187 187 186 185 182 176 165 162 165 167 171 178 179 179 181 181 180 177 173 171 170 169 168
129 110 146 233 233 223 236 246 241 231 232 239 246 252 256 259 268 292 308 308 303 295 287 268 250 261 274 285 303 290 263 256 260 255 242 235 234 234 228 218 208 203 201 197 191 189 187 183 184 186 190 190 188 193 191 182 183 183 181 187 188 182 183 186 186 187 186 185 183 173 165 167 171 178 184 184 184 185 184 183 181 178 176 175 173 172
21 248 236 264 246 223 216 230 228 219 226 233 240 247 247 247 265 315 331 334 317 279 263 250 244 248 276 292 305 299 275 269 277 281 269 250 236 233 233 227 216 207 203 200 196 191 184 177 174 175 181 187 189 193 194 192 192 193 189 189 193 191 186 184 183 185 188 189 187 179 174 176 178 182 186 187 188 186 185 185 184 183 181 180 177 175
26 36 251 264 255 226 217 230 225 215 220 229 233 230 223 225 257 307 334 348 287 263 272 289 264 235 270 312 326 312 290 287 285 283 282 269 247 236 234 231 225 216 207 203 201 194 186 179 177 177 177 184 190 192 196 200 200 200 198 194 197 198 192 187 184 184 188 191 190 186 183 185 186 185 186 189 190 189 188 187 187 187 185 184 181 179
71 76 93 103 314 271 235 246 243 218 208 207 211 205 183 150 177 280 350 356 252 279 19 6 265 216 234 278 292 289 293 290 288 286 287 283 262 247 240 233 228 223 214 208 205 200 193 190 189 185 179 181 190 194 197 203 206 207 206 203 202 202 199 193 188 187 190 192 193 193 192 193 193 188 187 189 190 191 191 191 191 191 189 188 185 183
126 100 90 81 16 245 221 262 256 205 196 190 188 194 183 130 124 159 343 280 265 291 303 295 235 222 244 263 274 281 286 285 288 291 288 280 266 257 248 235 229 226 220 215 211 207 202 197 194 190 185 183 188 193 197 203 208 211 212 211 208 205 204 203 197 194 194 194 196 199 199 201 200 194 189 190 190 191 192 193 194 193 192 192 191 189
173 143 103 63 41 69 204 248 192 168 189 197 194 197 192 158 145 152 146 280 279 302 303 283 240 250 261 268 275 279 284 286 287 294 293 277 260 255 251 235 229 227 224 221 218 214 208 202 197 194 190 185 185 190 196 202 208 211 212 214 216 215 211 208 206 202 200 198 198 203 205 206 205 201 197 194 192 191 192 194 194 194 195 197 197 197
179 129 42 37 41 41 11 289 190 170 187 205 207 212 212 207 218 203 156 186 244 320 322 292 209 240 261 266 279 287 295 298 295 296 294 277 254 245 243 230 224 227 226 225 222 220 215 208 203 199 195 188 183 187 195 200 206 211 213 214 218 224 221 215 214 211 208 205 203 206 210 210 208 206 205 202 198 196 196 196 196 197 198 200 202 204
108 94 57 43 48 28 352 334 213 188 184 192 200 212 220 221 223 192 141 151 162 320 302 252 231 251 273 280 284 287 297 303 301 299 292 270 240 228 233 232 224 225 227 227 225 222 220 215 210 205 199 194 188 187 192 197 203 209 214 217 221 227 227 224 222 221 218 215 211 210 213 215 213 209 209 208 207 204 202 201 200 201 201 202 204 206
112 109 73 57 66 54 12 357 211 207 208 185 183 204 214 217 213 181 135 134 116 311 275 259 259 271 283 285 282 283 292 301 302 300 288 259 226 213 221 233 230 223 223 228 229 226 223 221 217 209 202 200 197 194 194 195 199 204 211 218 225 230 231 228 228 228 227 224 220 216 216 219 219 216 214 212 211 212 210 208 206 205 205 205 206 207
45 132 116 74 64 100 85 56 167 206 206 190 185 198 199 202 207 198 149 96 102 276 283 279 279 291 296 287 295 303 300 309 330 329 297 246 218 204 205 216 226 219 217 223 228 231 230 227 222 214 206 203 203 200 198 197 198 201 207 214 223 231 235 234 232 232 233 232 229 225 222 221 221 220 219 216 214 215 216 215 212 210 208 208 209 210
6 289 199 41 28 72 144 31 60 124 172 184 181 175 170 179 193 191 189 145 146 229 291 287 284 300 322 314 335 344 337 342 4 3 344 235 213 204 198 199 208 216 216 214 218 226 229 229 227 221 212 206 206 206 201 200 201 200 204 211 219 227 233 235 232 229 231 233 232 230 228 227 224 222 220 220 219 217 218 219 218 215 212 211 212 213
345 318 267 314 356 356 281 235 145 97 110 140 156 161 170 189 187 188 189 153 138 148 286 284 280 277 321 328 348 360 355 350 358 8 22 72 178 191 194 202 212 222 220 212 211 216 219 222 225 225 219 212 212 214 208 203 203 202 204 211 217 223 230 235 235 232 231 231 231 230 230 230 229 226 223 222 224 222 219 219 221 220 219 217 216 216
342 335 325 322 333 344 313 150 143 140 128 128 140 139 128 145 178 193 192 167 159 148 193 269 276 261 269 290 298 318 340 341 345 355 1 51 85 68 229 240 253 258 252 235 220 216 216 218 222 225 222 217 217 220 216 209 207 207 207 211 216 222 229 237 241 239 235 233 233 231 229 231 232 232 229 226 227 227 224 222 222 221 222 223 222 220
348 335 328 329 336 149 150 135 131 143 140 132 124 103 87 95 154 191 196 190 192 174 178 241 271 274 270 281 296 302 307 318 326 333 343 23 72 325 286 273 275 276 273 265 247 230 224 223 226 228 225 221 220 221 218 213 212 211 211 213 216 220 225 234 241 244 241 236 235 234 232 231 231 232 233 232 230 230 228 228 226 224 224 225 227 226
345 326 312 291 167 164 166 160 150 151 147 132 110 100 77 66 83 151 194 186 195 196 198 224 257 271 271 276 289 297 299 309 318 328 351 13 20 241 260 280 279 278 274 268 261 249 237 229 229 231 229 225 221 220 220 218 217 216 215 214 216 219 222 227 232 237 239 236 234 235 235 234 232 231 232 233 232 231 230 230 230 229 228 228 229 230
338 326 302 181 178 178 181 177 165 167 187 182 178 136 61 39 38 5 231 186 193 203 199 206 237 253 262 271 283 300 315 328 327 337 357 348 254 184 114 183 233 69 40 275 254 252 245 235 229 227 229 229 224 221 222 222 221 222 221 219 221 223 225 228 231 233 236 235 231 230 232 233 233 232 233 234 234 233 231 230 231 231 232 232 232 233
330 311 224 175 178 185 196 194 180 176 185 197 222 232 338 342 346 355 286 205 204 214 203 203 228 236 250 267 286 315 333 332 325 340 1 301 233 106 105 166 135 112 103 88 86 121 223 251 234 225 226 229 228 224 223 223 224 225 226 226 226 228 232 235 237 237 237 236 233 230 229 230 233 233 233 234 235 235 233 231 230 231 233 233 234 235
312 264 226 212 208 204 206 215 213 209 207 210 223 233 268 284 300 345 329 201 202 224 217 215 219 206 239 269 295 322 326 317 328 343 9 275 186 122 131 143 114 111 124 116 89 81 63 1 255 232 226 226 226 228 227 226 227 229 231 231 231 232 236 240 241 241 239 236 234 233 230 227 229 232 234 235 235 235 235 234 232 231 232 234 234 235
293 229 196 199 215 215 210 273 255 228 228 234 241 253 265 267 290 339 359 189 207 227 232 231 224 213 224 253 256 223 170 140 141 184 140 149 175 178 163 149 119 108 126 130 101 86 74 46 276 245 233 226 223 225 230 232 233 234 235 236 236 236 238 242 246 249 249 243 238 237 235 232 230 230 231 233 235 235 234 234 233 232 232 233 234 234
251 201 186 194 214 234 249 303 321 258 242 246 255 271 279 284 304 337 2 188 208 214 212 217 220 211 188 175 165 154 144 148 159 164 158 155 167 181 171 159 149 133 136 132 111 102 99 92 164 240 242 237 229 227 232 237 239 241 242 242 243 243 242 244 248 251 252 249 244 241 240 239 236 234 232 231 232 233 233 232 232 231 232 232 233 234
217 200 205 233 255 274 269 260 276 286 265 259 264 270 275 284 297 318 353 58 194 195 181 189 207 203 181 169 157 135 113 139 153 147 146 150 154 162 160 157 159 153 150 144 135 129 120 107 113 175 226 243 241 236 238 241 243 246 247 247 247 247 247 248 249 252 253 250 247 244 242 241 237 234 235 235 233 231 231 231 231 230 230 231 233 233
229 215 217 251 272 276 264 251 250 252 259 272 278 270 265 272 278 294 346 34 183 199 184 176 196 199 176 160 157 147 127 139 147 142 138 139 139 142 147 158 165 163 164 165 161 154 144 133 136 156 187 229 240 242 244 246 249 253 253 253 251 251 251 250 250 252 252 250 246 243 243 243 238 235 237 238 237 234 231 230 230 230 229 230 232 233
219 199 219 269 300 284 260 253 246 243 247 256 270 270 253 228 221 54 49 47 37 208 194 177 179 192 175 160 156 156 152 148 147 149 148 141 138 141 148 160 169 171 175 179 178 178 172 164 164 171 177 188 205 220 233 242 249 254 256 256 254 251 250 249 249 250 250 249 246 241 241 241 237 232 233 237 238 237 236 232 229 230 229 229 231 233
137 116 239 304 305 282 264 251 241 246 254 256 260 262 257 248 240 107 101 70 33 15 214 183 60 151 173 163 153 151 150 148 150 161 162 152 147 151 156 165 173 179 184 188 190 192 193 191 188 186 185 188 196 204 208 218 232 241 248 255 256 251 246 244 245 247 249 250 248 245 243 242 240 233 230 232 232 233 237 238 233 230 230 230 232 234
188 135 335 323 302 270 271 263 248 250 258 255 251 250 250 251 254 252 212 165 20 17 25 162 133 108 96 101 137 150 149 152 161 164 159 158 160 162 168 174 180 186 191 197 200 200 202 204 204 202 198 193 196 206 212 217 222 228 232 239 248 252 249 245 246 249 251 251 250 250 248 245 244 241 236 235 231 228 233 240 238 233 231 231 233 235
218 240 278 313 310 257 255 276 258 247 248 248 247 247 247 248 249 253 259 274 326 12 33 157 174 189 297 27 67 121 139 160 177 169 152 157 166 167 174 181 185 191 196 206 211 210 211 213 212 214 215 212 211 214 220 226 231 234 234 234 237 241 244 245 248 251 251 249 249 252 252 247 243 243 242 241 239 232 229 235 241 239 233 230 231 234
259 264 259 280 286 244 230 209 202 234 255 260 255 249 251 253 252 256 268 275 265 209 174 287 130 203 257 273 15 50 125 181 194 180 159 163 171 171 184 192 193 195 197 208 222 225 226 226 225 226 228 230 231 231 233 238 244 247 245 239 238 242 244 245 247 250 251 251 249 251 253 249 245 244 243 240 241 238 230 229 238 242 238 233 230 230
253 260 245 251 258 217 188 186 215 269 287 276 254 245 252 255 251 248 254 257 232 207 220 249 274 336 314 248 236 246 233 241 224 198 186 191 187 185 196 203 202 200 200 207 220 231 237 238 239 240 238 238 238 237 239 246 253 253 241 227 223 236 246 248 249 251 257 260 256 252 254 253 249 247 243 237 237 238 233 229 232 238 239 236 233 230
236 244 235 232 236 218 198 210 241 276 294 281 255 244 248 248 242 238 236 243 244 240 246 252 256 275 301 281 236 230 229 240 235 221 215 212 205 205 212 215 213 211 211 210 212 223 235 240 244 248 247 242 235 231 235 241 241 232 222 216 218 230 239 244 248 253 264 268 253 243 243 248 249 247 243 237 235 235 234 233 233 234 236 235 233 234
226 232 228 228 236 234 217 215 237 264 289 290 265 246 240 239 239 244 251 272 273 262 260 261 256 256 266 279 269 245 232 232 226 221 221 217 213 215 220 225 228 230 231 228 218 217 225 233 241 246 249 248 241 232 227 221 215 212 216 222 228 233 236 243 254 264 276 286 264 236 230 235 241 243 240 235 234 234 235 236 235 234 234 233 231 233
216 218 221 234 246 239 221 212 227 244 271 301 280 247 236 235 237 250 280 302 286 251 240 251 257 247 248 266 274 263 255 248 232 227 225 222 220 220 225 235 240 241 248 253 248 238 228 228 235 240 245 251 245 236 228 218 212 211 215 219 221 226 230 234 248 260 263 285 308 296 253 239 239 241 237 231 229 231 235 238 240 237 235 235 234 236
202 206 214 227 245 241 222 220 240 253 267 293 287 251 236 233 232 247 282 309 280 223 222 230 251 250 249 263 271 265 261 262 256 247 243 237 230 222 228 248 247 247 258 261 259 262 256 245 243 239 238 240 234 230 234 231 224 220 216 208 207 217 224 224 234 239 230 250 287 284 265 256 247 243 240 235 230 227 227 234 241 239 236 238 240 241
195 201 210 222 238 234 219 224 247 258 260 271 276 250 232 231 234 243 250 234 225 256 240 234 244 253 258 269 275 273 270 268 264 261 266 271 258 230 224 250 262 263 275 273 266 270 269 263 255 240 233 232 227 226 234 241 243 240 230 216 211 218 223 225 232 235 225 228 256 266 263 266 255 247 248 247 242 234 228 228 235 238 238 240 241 240
197 203 210 218 225 222 216 226 250 258 256 264 265 238 223 225 232 237 242 254 273 281 265 242 240 241 247 265 278 283 282 276 271 272 277 281 270 238 223 254 275 274 278 281 282 282 277 276 274 261 244 234 229 230 236 242 251 253 243 231 226 225 222 219 223 229 222 218 220 227 242 261 255 251 254 256 257 252 241 236 238 243 243 244 244 243
208 209 212 215 217 216 215 218 239 260 261 265 254 230 220 224 234 242 254 274 284 278 255 235 241 243 246 256 269 278 283 283 283 286 281 262 242 212 184 228 266 269 274 275 280 286 286 287 292 294 291 276 251 242 241 241 247 253 247 240 236 231 223 217 218 223 220 212 207 210 215 213 205 216 242 258 285 306 256 239 240 245 244 244 247 249
214 215 220 222 221 221 218 219 238 263 266 260 237 223 219 227 238 249 265 280 284 273 246 233 242 249 251 255 260 268 277 283 285 283 256 217 188 150 127 139 178 221 252 271 288 302 309 308 306 307 307 305 295 273 256 249 249 249 248 244 240 236 234 234 237 238 235 229 225 223 220 216 215 214 212 226 252 325 260 238 242 248 247 245 251 254
217 222 232 237 238 243 245 244 251 260 257 242 225 220 223 234 245 255 264 272 274 264 249 243 246 249 252 255 258 260 265 264 249 226 203 177 146 127 128 139 146 164 211 271 296 306 313 315 314 311 306 302 299 293 280 266 261 261 258 255 250 245 243 246 250 251 249 244 241 238 233 231 234 235 232 231 232 233 239 244 247 251 254 256 255 250
225 226 233 242 247 249 252 252 251 250 244 229 223 226 233 241 247 250 253 257 258 253 249 248 249 252 255 258 258 253 247 231 200 184 175 161 144 132 126 124 120 107 78 29 350 329 321 323 323 318 309 303 297 295 293 283 272 270 271 271 268 262 256 254 255 255 255 251 248 248 247 246 246 244 242 239 236 232 231 233 236 240 246 251 254 253
226 224 228 238 242 239 245 250 248 244 238 230 229 233 235 238 239 238 240 243 245 247 250 251 250 249 248 244 237 228 220 203 173 158 151 147 143 133 119 105 86 60 38 25 16 6 353 345 345 345 336 326 316 309 307 304 296 285 280 280 283 282 276 271 266 264 265 263 260 257 257 257 256 254 251 248 245 240 235 232 232 235 238 241 246 254
227 227 229 234 236 235 243 252 248 241 236 233 233 232 231 231 231 231 233 238 242 245 249 248 244 238 233 231 227 214 198 177 157 147 143 143 139 129 113 86 47 20 7 4 6 6 1 350 346 348 349 348 343 334 327 324 321 317 309 298 294 295 298 298 295 289 285 284 282 279 277 275 273 270 265 261 258 254 250 245 241 240 240 241 243 247
230 228 226 227 231 236 244 247 239 229 228 230 231 232 230 226 222 222 226 230 236 241 244 245 242 239 238 238 238 232 214 182 162 145 137 139 138 125 109 25 341 318 319 332 339 343 344 339 332 332 335 339 344 345 340 334 329 327 326 320 312 308 309 311 314 315 312 308 305 302 299 296 293 289 283 278 272 268 263 258 255 252 250 248 247 245
229 228 226 229 234 235 234 231 227 226 228 228 227 226 224 216 212 215 222 226 230 234 238 242 244 244 242 242 245 246 233 207 188 162 145 140 125 82 355 306 301 299 306 316 319 321 325 324 320 316 314 316 323 328 330 329 326 321 318 315 312 311 311 311 313 316 317 316 314 311 308 304 301 297 295 292 288 282 276 270 265 262 259 255 253 251
232 231 231 233 234 227 220 221 226 230 228 218 214 216 215 212 213 218 220 219 220 223 229 238 248 256 259 256 256 259 253 240 225 204 197 218 273 314 310 299 290 290 295 300 305 313 317 316 312 306 298 295 301 307 310 312 312 311 309 307 305 304 305 308 310 311 314 316 316 315 312 308 304 299 295 294 293 291 288 283 276 272 269 264 260 256
Height
3166 3168 3169 3170 3171 3171 3172 3173 3173 3174 3175 3175 3176 3176 3177 3178 3178 3178 3179 3179 3180 3180 3179 3179 3179 3180 3180 3181 3181 3182 3183 3184 3186 3187 3189 3191 3192 3193 3194 3196 3197 3199 3200 3201 3201 3202 3203 3205 3206 3207 3208 3208 3209 3210 3211 3212 3213 3214 3214 3215 3215 3216 3217 3217 3218 3218 3219 3220 3221 3221 3222 3223 3224 3226 3227 3228 3229 3230 3230 3231 3232 3233 3233 3234 3235 3236
3166 3167 3168 3169 3170 3171 3172 3172 3173 3174 3174 3175 3176 3176 3177 3178 3178 3178 3178 3179 3179 3179 3179 3178 3179 3179 3179 3180 3180 3181 3182 3183 3185 3186 3188 3190 3191 3192 3193 3195 3196 3198 3199 3200 3201 3202 3203 3204 3205 3206 3208 3209 3209 3210 3211 3212 3213 3214 3214 3215 3216 3216 3217 3218 3218 3219 3220 3220 3221 3222 3223 3224 3225 3226 3227 3228 3229 3230 3231 3232 3232 3233 3234 3235 3236 3237
3166 3166 3167 3169 3170 3170 3171 3172 3173 3173 3174 3175 3175 3176 3177 3177 3178 3178 3178 3179 3179 3179 3178 3178 3178 3178 3178 3179 3179 3180 3181 3182 3184 3185 3187 3189 3190 3191 3192 3194 3195 3197 3198 3199 3200 3201 3202 3203 3205 3206 3207 3208 3209 3210 3211 3212 3213 3214 3215 3215 3216 3216 3217 3218 3219 3219 3220 3221 3221 3222 3223 3224 3225 3226 3227 3228 3229 3230 3231 3232 3233 3234 3235 3235 3236 3237
3166 3166 3166 3168 3169 3170 3171 3172 3172 3173 3174 3175 3175 3176 3176 3177 3178 3178 3178 3178 3178 3178 3178 3178 3177 3176 3177 3177 3177 3178 3179 3181 3182 3183 3185 3187 3188 3190 3191 3193 3194 3196 3197 3199 3199 3200 3202 3203 3204 3205 3206 3208 3209 3210 3211 3212 3213 3214 3215 3216 3216 3217 3217 3218 3219 3219 3220 3220 3221 3222 3223 3224 3225 3226 3227 3228 3230 3231 3231 3232 3233 3234 3235 3236 3237 3237
3165 3165 3166 3166 3168 3169 3170 3170 3171 3172 3173 3174 3174 3175 3176 3176 3178 3178 3177 3178 3177 3177 3177 3177 3176 3173 3174 3174 3175 3176 3177 3178 3180 3182 3183 3185 3186 3188 3189 3191 3193 3194 3196 3198 3199 3200 3201 3202 3204 3205 3206 3207 3208 3210 3211 3212 3212 3213 3214 3215 3216 3217 3218 3218 3219 3220 3220 3221 3221 3222 3223 3224 3225 3226 3227 3229 3230 3231 3232 3233 3234 3235 3236 3237 3237 3238
3165 3165 3165 3166 3167 3168 3168 3169 3170 3171 3172 3172 3172 3173 3175 3176 3177 3177 3177 3178 3177 3177 3177 3178 3176 3172 3171 3173 3173 3174 3175 3176 3178 3179 3181 3183 3184 3186 3187 3189 3191 3192 3194 3197 3198 3199 3201 3202 3203 3204 3205 3206 3208 3209 3211 3211 3212 3213 3214 3215 3216 3217 3218 3218 3219 3220 3221 3221 3222 3223 3224 3225 3226 3227 3228 3229 3230 3231 3232 3233 3234 3235 3236 3237 3238 3238
3165 3165 3165 3166 3166 3167 3167 3168 3169 3170 3171 3171 3171 3172 3174 3176 3176 3176 3177 3178 3178 3177 3176 3178 3177 3173 3170 3171 3172 3173 3173 3174 3176 3177 3179 3181 3182 3184 3185 3187 3189 3191 3193 3195 3197 3198 3200 3202 3202 3203 3204 3206 3207 3209 3210 3211 3212 3213 3214 3215 3216 3217 3218 3218 3219 3220 3221 3222 3222 3223 3224 3225 3226 3227 3228 3229 3230 3231 3232 3233 3234 3235 3236 3237 3238 3238
3165 3165 3165 3165 3166 3166 3166 3167 3167 3169 3170 3170 3170 3172 3174 3175 3176 3176 3177 3177 3177 3176 3176 3176 3177 3175 3170 3168 3170 3171 3171 3172 3173 3174 3176 3178 3180 3182 3184 3186 3188 3190 3192 3193 3195 3197 3199 3200 3202 3203 3204 3205 3207 3208 3209 3210 3211 3213 3214 3214 3215 3217 3218 3218 3219 3220 3221 3222 3222 3223 3224 3225 3226 3227 3228 3229 3230 3231 3232 3233 3234 3235 3236 3237 3237 3238
3164 3164 3164 3164 3165 3165 3165 3166 3166 3167 3168 3167 3169 3171 3173 3174 3175 3176 3176 3176 3176 3176 3175 3174 3176 3176 3170 3167 3169 3170 3170 3170 3170 3172 3174 3176 3178 3181 3182 3184 3186 3188 3190 3192 3194 3196 3197 3199 3200 3202 3203 3205 3206 3207 3208 3210 3211 3212 3213 3214 3215 3216 3217 3218 3219 3220 3221 3222 3222 3223 3224 3225 3225 3226 3228 3229 3230 3231 3232 3233 3234 3235 3236 3237 3237 3238
3163 3163 3164 3164 3164 3164 3164 3164 3165 3166 3165 3166 3168 3171 3172 3173 3174 3175 3176 3176 3176 3175 3173 3173 3175 3176 3170 3167 3168 3169 3168 3169 3170 3171 3173 3174 3177 3179 3180 3182 3184 3187 3189 3190 3193 3195 3196 3198 3200 3201 3202 3204 3205 3206 3208 3209 3210 3211 3212 3213 3215 3216 3217 3218 3219 3220 3221 3222 3222 3223 3224 3224 3225 3226 3227 3228 3230 3231 3232 3233 3234 3235 3236 3237 3238 3238
3163 3163 3163 3163 3163 3163 3163 3164 3164 3164 3164 3166 3168 3169 3171 3172 3173 3175 3176 3176 3175 3173 3172 3172 3173 3175 3172 3167 3167 3168 3168 3169 3170 3170 3171 3172 3174 3176 3178 3180 3182 3185 3186 3188 3191 3193 3194 3196 3198 3199 3201 3203 3204 3205 3207 3208 3209 3210 3211 3213 3214 3215 3216 3217 3218 3219 3220 3221 3222 3223 3224 3224 3225 3225 3227 3228 3230 3231 3232 3233 3234 3235 3236 3237 3238 3238
3163 3162 3162 3162 3162 3162 3163 3163 3163 3163 3164 3166 3167 3168 3170 3171 3173 3175 3176 3176 3175 3172 3171 3171 3172 3174 3173 3168 3167 3167 3168 3168 3169 3168 3169 3169 3171 3172 3175 3177 3180 3182 3184 3186 3189 3191 3192 3194 3195 3197 3199 3201 3203 3204 3206 3207 3208 3209 3210 3212 3213 3214 3216 3217 3218 3219 3220 3221 3222 3223 3224 3224 3225 3225 3226 3228 3229 3231 3232 3233 3234 3235 3236 3237 3238 3238
3163 3162 3162 3162 3162 3162 3162 3162 3162 3162 3163 3165 3166 3167 3168 3170 3173 3175 3175 3175 3173 3172 3172 3172 3172 3173 3171 3168 3167 3167 3167 3167 3167 3167 3167 3168 3169 3169 3171 3173 3176 3179 3182 3184 3186 3189 3191 3192 3194 3196 3197 3199 3201 3203 3205 3206 3207 3209 3210 3211 3212 3214 3215 3216 3217 3218 3219 3220 3221 3222 3223 3224 3224 3225 3226 3227 3228 3230 3231 3232 3233 3235 3236 3237 3238 3239
3162 3162 3162 3162 3162 3161 3162 3162 3162 3162 3163 3164 3165 3166 3167 3168 3172 3175 3176 3176 3174 3173 3172 3172 3172 3171 3168 3167 3167 3166 3166 3165 3165 3165 3165 3165 3167 3168 3168 3170 3172 3176 3179 3182 3184 3187 3189 3191 3193 3195 3196 3198 3200 3202 3204 3205 3207 3208 3209 3210 3211 3213 3214 3215 3216 3217 3218 3220 3221 3222 3223 3223 3224 3225 3226 3227 3228 3229 3230 3231 3232 3234 3235 3236 3237 3238
3162 3162 3162 3162 3161 3161 3162 3161 3161 3161 3162 3163 3163 3165 3165 3166 3168 3170 3173 3175 3175 3174 3173 3172 3172 3169 3167 3167 3166 3166 3166 3164 3163 3163 3163 3163 3164 3166 3167 3167 3169 3172 3175 3179 3182 3185 3187 3190 3192 3194 3196 3198 3199 3201 3203 3205 3206 3207 3208 3209 3210 3212 3213 3214 3216 3217 3218 3219 3220 3221 3222 3223 3224 3225 3226 3227 3227 3228 3229 3230 3231 3232 3233 3235 3236 3237
3162 3162 3162 3162 3161 3162 3161 3161 3161 3161 3161 3162 3162 3164 3164 3165 3165 3166 3169 3171 3172 3174 3173 3171 3170 3167 3167 3167 3166 3166 3165 3164 3162 3161 3161 3161 3162 3164 3165 3166 3167 3169 3172 3176 3179 3183 3186 3188 3191 3193 3195 3197 3198 3200 3202 3203 3205 3206 3207 3208 3210 3211 3212 3213 3214 3216 3217 3218 3219 3220 3221 3222 3223 3224 3225 3226 3227 3228 3228 3229 3230 3231 3232 3233 3234 3235
3162 3162 3162 3162 3162 3162 3161 3161 3161 3161 3161 3161 3162 3162 3163 3164 3164 3165 3167 3169 3170 3172 3172 3169 3168 3167 3167 3166 3165 3165 3165 3163 3161 3159 3159 3159 3160 3162 3164 3165 3166 3167 3170 3173 3176 3180 3184 3187 3189 3192 3194 3196 3197 3199 3200 3202 3204 3205 3207 3208 3209 3210 3211 3212 3213 3214 3216 3217 3218 3219 3220 3221 3222 3223 3224 3225 3226 3227 3228 3228 3229 3230 3231 3232 3232 3233
3163 3163 3162 3162 3162 3162 3162 3161 3161 3161 3161 3161 3161 3161 3161 3163 3164 3164 3166 3168 3170 3172 3170 3168 3167 3167 3166 3166 3165 3164 3163 3162 3160 3159 3158 3158 3159 3161 3163 3164 3165 3167 3168 3171 3175 3178 3181 3184 3187 3190 3192 3194 3196 3198 3200 3201 3203 3204 3205 3206 3207 3208 3210 3211 3212 3213 3214 3215 3217 3218 3219 3220 3221 3222 3223 3224 3225 3226 3227 3228 3228 3229 3230 3231 3231 3232
3162 3162 3162 3162 3162 3162 3162 3162 3161 3161 3160 3160 3160 3161 3161 3162 3163 3163 3165 3167 3170 3172 3171 3167 3166 3167 3166 3166 3164 3163 3162 3161 3160 3159 3158 3158 3158 3160 3161 3163 3164 3166 3167 3169 3172 3175 3177 3181 3184 3188 3190 3192 3195 3197 3198 3200 3201 3203 3204 3205 3206 3207 3208 3209 3210 3211 3213 3214 3215 3216 3218 3219 3220 3221 3222 3223 3224 3224 3225 3227 3228 3228 3229 3230 3230 3231
3162 3162 3162 3162 3162 3162 3162 3162 3162 3161 3161 3161 3160 3161 3162 3162 3162 3163 3164 3165 3167 3172 3174 3170 3166 3166 3166 3165 3164 3164 3162 3161 3161 3160 3159 3158 3158 3159 3161 3162 3164 3165 3167 3168 3169 3171 3174 3177 3180 3184 3187 3190 3193 3195 3196 3198 3199 3201 3202 3203 3204 3206 3207 3208 3209 3210 3211 3212 3213 3214 3216 3217 3218 3220 3221 3221 3222 3223 3224 3225 3226 3227 3228 3229 3229 3230
3162 3162 3162 3162 3162 3162 3162 3161 3161 3161 3161 3161 3161 3161 3162 3162 3162 3163 3164 3165 3166 3169 3174 3173 3167 3164 3164 3164 3164 3164 3163 3162 3161 3160 3159 3159 3160 3161 3162 3163 3164 3165 3166 3167 3169 3170 3172 3175 3177 3180 3183 3186 3189 3192 3194 3195 3197 3198 3200 3201 3203 3204 3205 3206 3207 3208 3209 3210 3211 3213 3214 3215 3216 3218 3219 3220 3221 3222 3223 3224 3225 3226 3227 3227 3228 3229
3162 3162 3162 3162 3162 3162 3162 3161 3161 3161 3161 3161 3161 3162 3162 3162 3162 3162 3163 3165 3166 3166 3170 3172 3168 3163 3162 3163 3163 3163 3163 3162 3161 3160 3159 3159 3161 3162 3162 3163 3163 3163 3164 3166 3167 3169 3171 3173 3175 3177 3180 3183 3185 3188 3190 3193 3195 3196 3198 3199 3200 3202 3203 3204 3205 3206 3207 3208 3210 3211 3212 3213 3214 3216 3217 3218 3219 3220 3221 3222 3223 3224 3225 3226 3227 3228
3162 3162 3162 3162 3162 3162 3161 3161 3161 3160 3160 3160 3161 3161 3161 3162 3162 3162 3162 3163 3165 3165 3167 3169 3168 3163 3161 3161 3162 3162 3162 3162 3160 3159 3160 3161 3161 3161 3161 3162 3162 3162 3162 3163 3165 3167 3168 3170 3172 3175 3178 3180 3182 3185 3187 3190 3192 3194 3195 3197 3198 3199 3201 3202 3203 3204 3205 3206 3207 3209 3210 3211 3212 3213 3214 3216 3217 3218 3219 3220 3221 3222 3223 3224 3225 3226
3161 3161 3161 3161 3162 3161 3161 3161 3160 3160 3160 3160 3160 3160 3160 3161 3161 3161 3161 3162 3163 3164 3164 3167 3166 3162 3160 3160 3161 3162 3163 3162 3160 3159 3160 3161 3160 3160 3161 3161 3161 3161 3161 3161 3163 3164 3165 3167 3169 3171 3175 3177 3179 3182 3185 3187 3190 3192 3193 3194 3196 3197 3199 3200 3200 3201 3202 3203 3204 3206 3207 3209 3210 3211 3212 3214 3215 3216 3217 3218 3219 3220 3221 3222 3223 3224
3161 3161 3161 3161 3161 3161 3161 3161 3160 3160 3160 3160 3159 3159 3159 3159 3159 3160 3160 3160 3161 3162 3162 3163 3162 3160 3160 3160 3161 3162 3163 3162 3160 3159 3160 3160 3159 3159 3160 3160 3159 3159 3159 3160 3161 3161 3162 3164 3166 3168 3171 3173 3176 3179 3182 3184 3187 3189 3191 3192 3194 3195 3196 3197 3198 3199 3200 3201 3202 3203 3204 3206 3207 3209 3210 3212 3213 3214 3215 3216 3217 3218 3219 3220 3221 3222
3160 3160 3160 3159 3160 3160 3160 3160 3159 3159 3159 3159 3158 3158 3158 3158 3158 3158 3158 3158 3159 3159 3160 3161 3160 3160 3160 3160 3161 3162 3162 3161 3160 3159 3160 3159 3159 3159 3159 3159 3158 3158 3158 3159 3159 3159 3159 3162 3164 3166 3168 3171 3173 3176 3178 3181 3184 3186 3188 3189 3191 3192 3193 3194 3196 3196 3197 3198 3199 3200 3201 3202 3204 3206 3208 3209 3211 3212 3213 3214 3215 3216 3217 3218 3219 3220
3159 3159 3159 3158 3158 3159 3159 3159 3158 3158 3158 3158 3157 3157 3157 3156 3156 3156 3156 3156 3157 3157 3159 3160 3160 3160 3160 3160 3160 3161 3161 3161 3160 3159 3159 3159 3159 3159 3158 3158 3157 3157 3157 3157 3158 3158 3157 3159 3163 3165 3166 3169 3171 3173 3175 3178 3181 3183 3185 3186 3187 3189 3189 3191 3192 3192 3194 3197 3198 3198 3199 3200 3201 3202 3204 3206 3208 3209 3210 3211 3212 3214 3215 3215 3216 3217
3158 3158 3158 3158 3158 3158 3158 3158 3158 3157 3157 3157 3156 3156 3155 3155 3155 3155 3155 3155 3155 3156 3157 3158 3159 3159 3159 3158 3159 3159 3160 3159 3159 3159 3159 3159 3159 3158 3157 3157 3157 3157 3157 3157 3157 3157 3157 3158 3161 3164 3165 3167 3168 3170 3172 3175 3177 3180 3181 3183 3184 3185 3186 3187 3188 3189 3191 3195 3196 3196 3198 3199 3199 3200 3201 3202 3204 3206 3207 3208 3209 3210 3212 3213 3214 3215
3157 3157 3157 3157 3157 3157 3157 3157 3157 3157 3156 3156 3155 3155 3154 3154 3154 3154 3153 3153 3154 3155 3155 3156 3157 3158 3158 3157 3157 3158 3158 3157 3157 3158 3159 3158 3158 3158 3157 3157 3157 3156 3156 3157 3157 3157 3157 3159 3160 3162 3164 3165 3166 3167 3169 3171 3174 3176 3177 3179 3180 3181 3182 3183 3185 3186 3188 3190 3192 3194 3194 3195 3196 3197 3198 3200 3201 3202 3203 3205 3206 3207 3208 3209 3211 3212
3156 3156 3156 3156 3156 3156 3156 3156 3156 3156 3155 3155 3154 3154 3154 3153 3153 3153 3153 3153 3154 3154 3154 3155 3156 3156 3156 3156 3156 3156 3156 3156 3156 3158 3158 3157 3157 3157 3157 3157 3157 3156 3156 3156 3157 3157 3157 3158 3159 3161 3162 3163 3164 3165 3167 3168 3170 3172 3173 3175 3176 3177 3178 3179 3180 3182 3183 3185 3188 3190 3190 3191 3193 3193 3195 3197 3198 3199 3200 3201 3202 3203 3205 3206 3208 3209
3156 3156 3156 3155 3155 3156 3156 3155 3155 3155 3155 3155 3155 3154 3154 3153 3153 3152 3152 3152 3153 3154 3153 3154 3156 3156 3156 3155 3155 3155 3155 3155 3156 3157 3157 3157 3156 3156 3156 3156 3156 3156 3156 3156 3156 3156 3157 3157 3158 3159 3160 3162 3163 3164 3165 3166 3168 3169 3170 3171 3171 3172 3172 3174 3175 3177 3179 3181 3184 3185 3184 3185 3187 3188 3190 3192 3194 3195 3196 3197 3198 3199 3201 3203 3205 3206
3155 3155 3155 3155 3155 3155 3155 3155 3154 3154 3155 3155 3155 3154 3154 3153 3153 3153 3152 3152 3153 3154 3153 3154 3156 3157 3157 3156 3154 3154 3155 3155 3155 3157 3157 3156 3156 3155 3156 3155 3155 3155 3155 3155 3155 3155 3156 3157 3157 3158 3158 3159 3161 3163 3164 3165 3166 3167 3168 3168 3168 3167 3167 3169 3171 3172 3175 3177 3178 3179 3180 3181 3183 3184 3184 3185 3187 3190 3193 3194 3194 3195 3197 3199 3201 3203
3154 3154 3154 3154 3154 3154 3154 3154 3154 3154 3154 3154 3154 3154 3153 3153 3153 3153 3153 3152 3153 3154 3153 3154 3156 3158 3158 3156 3154 3154 3154 3155 3156 3157 3156 3156 3155 3155 3155 3155 3154 3154 3154 3154 3155 3155 3155 3156 3156 3157 3157 3158 3159 3161 3162 3163 3164 3164 3165 3165 3164 3164 3164 3165 3167 3169 3171 3173 3173 3174 3177 3179 3181 3182 3181 3179 3180 3184 3188 3191 3192 3192 3193 3195 3197 3200
3153 3154 3154 3154 3153 3154 3154 3153 3154 3154 3154 3152 3152 3153 3152 3152 3153 3153 3153 3152 3153 3154 3154 3154 3155 3157 3158 3156 3154 3153 3154 3155 3156 3157 3157 3156 3155 3155 3154 3154 3153 3153 3153 3153 3154 3154 3155 3155 3156 3156 3157 3158 3158 3159 3160 3161 3162 3162 3162 3162 3162 3162 3163 3164 3165 3166 3167 3168 3169 3170 3172 3174 3174 3176 3177 3178 3180 3181 3183 3186 3189 3190 3190 3191 3193 3195
3152 3153 3153 3153 3153 3153 3153 3154 3154 3153 3152 3151 3152 3152 3152 3152 3152 3152 3152 3153 3153 3154 3155 3156 3156 3157 3156 3154 3153 3153 3154 3156 3157 3158 3157 3156 3155 3155 3154 3153 3153 3153 3153 3153 3153 3153 3154 3154 3155 3155 3156 3157 3157 3158 3159 3160 3160 3160 3160 3160 3160 3160 3161 3162 3163 3163 3163 3163 3164 3165 3166 3168 3169 3169 3172 3176 3179 3179 3179 3181 3184 3187 3188 3188 3189 3191
3151 3152 3152 3152 3152 3152 3153 3154 3153 3152 3151 3151 3151 3151 3151 3151 3151 3151 3151 3152 3153 3153 3154 3155 3156 3156 3155 3154 3153 3153 3154 3155 3157 3158 3158 3157 3156 3155 3154 3153 3152 3152 3152 3153 3153 3153 3153 3153 3154 3154 3155 3155 3156 3157 3157 3158 3158 3158 3158 3158 3158 3158 3158 3159 3160 3161 3161 3161 3161 3161 3162 3163 3164 3165 3167 3171 3174 3176 3177 3177 3178 3181 3184 3184 3185 3187
3150 3151 3151 3151 3152 3152 3152 3152 3152 3151 3150 3150 3149 3149 3150 3150 3150 3151 3151 3151 3152 3152 3152 3153 3154 3155 3154 3154 3153 3153 3154 3155 3156 3157 3157 3157 3156 3155 3154 3153 3153 3152 3152 3153 3153 3153 3153 3153 3153 3153 3154 3154 3155 3155 3156 3156 3156 3156 3156 3156 3156 3156 3156 3157 3157 3158 3159 3158 3156 3155 3156 3158 3159 3160 3163 3166 3168 3171 3173 3173 3174 3176 3179 3179 3181 3184
3149 3149 3150 3150 3151 3151 3151 3152 3151 3151 3150 3148 3147 3148 3148 3149 3149 3150 3151 3151 3151 3151 3151 3151 3152 3153 3153 3153 3153 3153 3153 3154 3155 3156 3156 3156 3155 3154 3153 3153 3153 3153 3153 3153 3153 3153 3153 3153 3153 3153 3153 3153 3154 3154 3154 3154 3154 3154 3154 3154 3154 3154 3154 3155 3155 3155 3155 3154 3151 3150 3151 3154 3155 3156 3158 3161 3164 3167 3169 3170 3171 3173 3174 3175 3177 3180
3147 3148 3149 3149 3149 3150 3150 3151 3150 3150 3148 3147 3147 3147 3148 3149 3149 3150 3150 3150 3149 3149 3150 3150 3151 3151 3151 3152 3152 3152 3152 3153 3153 3154 3154 3154 3154 3153 3153 3153 3153 3153 3153 3153 3153 3153 3153 3153 3153 3153 3153 3153 3153 3153 3153 3153 3153 3153 3153 3153 3153 3153 3153 3153 3153 3153 3153 3152 3151 3150 3151 3152 3153 3154 3155 3157 3160 3163 3165 3167 3168 3170 3171 3173 3175 3177
3146 3147 3148 3148 3148 3148 3149 3149 3149 3148 3148 3147 3146 3147 3148 3149 3149 3150 3150 3150 3149 3149 3150 3150 3150 3151 3151 3151 3151 3151 3152 3152 3152 3152 3153 3153 3153 3153 3152 3152 3152 3153 3153 3153 3153 3153 3153 3153 3153 3153 3153 3152 3152 3152 3152 3152 3152 3152 3152 3152 3152 3152 3152 3153 3152 3152 3152 3152 3152 3151 3151 3152 3152 3153 3154 3156 3157 3159 3161 3163 3165 3167 3169 3170 3172 3174
3145 3146 3146 3147 3147 3147 3148 3148 3148 3147 3147 3146 3146 3147 3147 3148 3149 3150 3150 3149 3149 3149 3150 3150 3150 3150 3150 3150 3150 3151 3151 3151 3151 3151 3151 3152 3152 3152 3151 3151 3152 3152 3152 3152 3152 3152 3152 3152 3152 3152 3152 3152 3152 3152 3152 3152 3151 3151 3151 3151 3151 3151 3152 3152 3152 3151 3151 3152 3152 3151 3151 3151 3151 3152 3153 3154 3155 3157 3158 3160 3162 3164 3166 3168 3169 3170
3143 3144 3145 3145 3146 3146 3147 3147 3147 3146 3145 3146 3146 3146 3147 3148 3148 3149 3148 3148 3148 3148 3149 3149 3149 3149 3149 3150 3150 3150 3150 3150 3150 3150 3150 3151 3151 3151 3151 3151 3151 3151 3152 3152 3152 3152 3152 3152 3152 3152 3152 3151 3151 3151 3151 3151 3151 3151 3151 3151 3151 3151 3151 3151 3151 3151 3151 3151 3151 3151 3151 3151 3151 3151 3151 3152 3153 3154 3156 3158 3160 3162 3164 3166 3167 3167
3142 3143 3144 3144 3145 3145 3145 3146 3146 3145 3144 3144 3145 3145 3146 3146 3147 3147 3147 3147 3147 3147 3147 3148 3148 3148 3149 3149 3149 3149 3149 3149 3149 3149 3149 3150 3150 3150 3151 3151 3150 3151 3151 3151 3151 3151 3151 3152 3152 3152 3152 3152 3151 3151 3151 3150 3150 3150 3150 3150 3151 3151 3151 3151 3151 3151 3151 3152 3151 3151 3151 3151 3151 3151 3151 3152 3153 3154 3155 3157 3159 3161 3162 3164 3165 3165
3140 3141 3142 3142 3143 3144 3144 3144 3144 3143 3143 3144 3143 3144 3144 3145 3145 3146 3146 3146 3146 3146 3146 3147 3147 3148 3148 3148 3148 3148 3148 3148 3149 3149 3149 3149 3149 3150 3150 3150 3150 3150 3150 3150 3151 3151 3151 3151 3152 3151 3151 3151 3151 3151 3151 3150 3150 3150 3150 3150 3150 3150 3150 3150 3150 3151 3151 3151 3151 3151 3151 3151 3151 3151 3152 3152 3153 3155 3156 3157 3159 3160 3161 3162 3162 3163
3139 3140 3140 3141 3141 3142 3142 3142 3142 3142 3142 3142 3142 3143 3143 3143 3144 3144 3145 3145 3145 3145 3145 3146 3146 3147 3147 3147 3147 3147 3148 3148 3148 3148 3148 3148 3149 3149 3149 3149 3149 3149 3150 3150 3150 3150 3150 3151 3151 3151 3150 3150 3150 3150 3150 3150 3150 3150 3150 3150 3150 3150 3150 3150 3150 3150 3150 3150 3150 3150 3150 3151 3151 3151 3152 3152 3153 3154 3155 3156 3157 3158 3159 3159 3160 3160
3137 3138 3139 3140 3140 3140 3140 3140 3141 3141 3141 3141 3141 3142 3142 3142 3143 3143 3143 3144 3144 3144 3144 3145 3145 3146 3146 3146 3146 3146 3147 3148 3148 3148 3148 3148 3148 3149 3149 3149 3149 3149 3149 3149 3150 3150 3150 3150 3150 3150 3150 3150 3150 3150 3150 3150 3150 3150 3150 3150 3150 3149 3150 3149 3149 3149 3149 3149 3149 3150 3150 3150 3150 3151 3151 3151 3152 3152 3153 3154 3155 3155 3156 3157 3157 3156
3136 3137 3138 3138 3139 3139 3139 3139 3139 3140 3140 3140 3140 3141 3141 3141 3141 3142 3142 3143 3143 3143 3143 3144 3144 3145 3145 3145 3145 3145 3146 3147 3147 3147 3147 3147 3148 3148 3148 3149 3149 3149 3149 3149 3150 3150 3150 3150 3150 3150 3149 3149 3149 3149 3149 3149 3150 3150 3149 3149 3149 3149 3149 3149 3149 3149 3149 3149 3149 3149 3149 3149 3150 3150 3150 3150 3151 3151 3151 3152 3152 3153 3154 3154 3155 3154
3134 3135 3136 3137 3137 3138 3138 3138 3138 3139 3139 3139 3140 3140 3140 3140 3141 3141 3141 3142 3142 3142 3142 3143 3143 3144 3144 3144 3144 3145 3145 3146 3146 3146 3147 3147 3147 3147 3148 3148 3148 3149 3149 3149 3150 3150 3150 3150 3149 3149 3149 3149 3149 3149 3149 3149 3149 3149 3149 3149 3149 3149 3148 3148 3148 3148 3148 3148 3148 3148 3148 3149 3149 3149 3149 3149 3149 3149 3149 3149 3150 3150 3150 3151 3151 3151
3133 3133 3134 3135 3136 3136 3137 3137 3137 3138 3138 3138 3139 3139 3139 3140 3140 3140 3141 3141 3141 3141 3141 3142 3142 3142 3143 3143 3144 3144 3144 3145 3145 3146 3146 3146 3146 3147 3147 3147 3148 3148 3149 3149 3149 3149 3149 3149 3149 3149 3149 3149 3149 3149 3149 3149 3149 3149 3149 3149 3149 3148 3148 3148 3148 3148 3147 3147 3147 3147 3148 3148 3147 3147 3147 3147 3147 3147 3148 3148 3148 3148 3148 3148 3148 3148
3131 3131 3132 3133 3134 3135 3135 3136 3136 3136 3137 3137 3137 3138 3138 3139 3139 3140 3140 3140 3140 3140 3140 3141 3141 3141 3142 3142 3143 3143 3143 3144 3145 3145 3145 3146 3146 3146 3146 3146 3147 3148 3148 3149 3149 3149 3149 3149 3148 3148 3148 3148 3148 3148 3148 3148 3148 3148 3148 3148 3148 3148 3148 3147 3147 3147 3147 3146 3146 3146 3147 3147 3147 3146 3146 3146 3146 3146 3146 3146 3146 3146 3146 3146 3146 3146
3129 3130 3131 3132 3132 3133 3134 3134 3135 3135 3135 3136 3136 3137 3138 3138 3139 3139 3139 3139 3140 3140 3140 3140 3140 3140 3141 3141 3142 3142 3143 3143 3144 3144 3145 3145 3146 3146 3146 3146 3147 3147 3148 3148 3148 3148 3148 3148 3148 3147 3147 3147 3148 3148 3148 3147 3147 3147 3147 3147 3147 3147 3147 3147 3147 3146 3146 3146 3146 3146 3146 3146 3146 3146 3145 3145 3145 3144 3144 3144 3144 3144 3144 3144 3144 3144